Location: Britannia Beach
(45.3521°N, 62.9901°W)
Time: 09:53:09
(UTC+00:00)

X-37B - Pass Details

Date: 03 August 2021
Orbit: 381 x 393 km, 45.0° (Epoch: 29 August)

Event Time Altitude Azimuth Distance (km) Brightness Sun altitude
Exits shadow 07:49:06 19° 223° (SW) 993 2.0 -11.1°
Maximum altitude 07:51:01 42° 160° (SSE) 556 1.2 -10.9°
Drops below altitude 10° 07:54:01 10° 87° (E) 1,398 4.3 -10.5°
Sets 07:56:08 0° 81° (E) 2,254 5.7 -10.2°
